星链-6073 (STARLINK-6073 )

导读

STARLINK-6073是美国太空探索技术公司SpaceX星链卫星互联网项目的一颗卫星,于2023年5月31日发射升空。星链计划旨在构建覆盖全球的低轨卫星互联网星座,为全球偏远地区、海洋等网络覆盖盲区提供高速互联网接入服务,该卫星是星链组网扩张过程中新增的一颗组网卫星。

Basic Information
目录编号:
56807
目录名称:
STARLINK-6073
国际标识:
2023-078AS
轨道中心:
EARTH
卫星名称:
星链-6073
卫星全名:
星链-6073 (STARLINK-6073 )
卫星状态:
在轨 (已飞行1111 天)
发射日期:
2023-05-31 UTC
国别 :
美国 (US)
星等 :
--
Orbit Information
数据来源 国际轨道数据 AOE轨道数据
星历时间 2026-06-15T04:45:06+0800
3小时前
查看轨道信息
2026-06-15T02:00:00+0800
6小时前
查看轨道信息
半长轴 6950.202km 6950.213km
偏心率 0.0003014 0.0000759
轨道倾角 70.003° 70.002°
近地点辐角 265.404° 342.664°
升交点赤经 79.273° 79.559°
平近点角 94.678° 119.123°
近地点 569.97km 571.548km
远地点 574.16km 572.604km
周期 96.107分钟 96.107分钟
每日圈数 14.983271 14.983238
Detailed Information
固有亮度:
5
最大亮度:
2.5
卫星平台:
Starlink v1.5
覆盖范围:
全球
运营商:
太空探索技术公司
运营商所在国:
美国
制造商(研发单位):
太空探索技术公司
制造商所在国:
美国
使用方式:
暂无
Satellite Introduction
星链(Starlink)计划是由太空探索技术公司(SpaceX)提出的一个巨型低轨卫星互联网星座项目,计划在2019年至2024年间在太空搭建由约1.2万颗卫星组成的“星链”网络,其中1584颗将部署在地球上空550千米处的近地轨道,并从2020年开始工作。该卫星仍在工作。
2D Orbit Map
3D Orbit Map
Orbit Altitude Analysis Chart
Orbit Inclination Analysis Chart
Orbit Comprehensive Analysis Chart
View Comprehensive Chart